[[{"header":{"parameterUnit":"m.s-1","parameterCategory":1,"la1":30.2991,"la2":30.254,"lo1":-89.0895,"lo2":-89.0444,"dy":0.0017,"dx":0.0017,"nx":28,"ny":28,"refTime":"2023-11-21T09:00:00:Z","depth":0,"parameterNumber":2,"parameterNumberName":"U-component_of_WINDS"},"data":[0,0,0,0,0,0,0,0,0,0,0,0,0,0,0,0,0,0,0,0,0,0,0,0,0,0,0,0,0,0,0,0,0,0,0,0,0,0,0,0,0,0,0,0,0,0,0,0,0,0,0,0,0,0,0,0,0,0,1.783,1.783,0,1.7862,1.7862,1.7862,1.7846,1.7845,1.7844,1.7843,1.7877,1.7879,1.788,0,0,0,0,0,0,0,0,0,0,0,0,0,1.7756,1.7757,1.783,1.783,1.783,1.7862,1.7862,1.7863,1.7846,1.7845,1.7844,1.7843,1.7876,1.7878,1.788,0,0,0,0,0,0,0,0,0,0,0,0,0,1.7788,1.7758,1.7829,1.7826,1.7826,1.7862,1.7862,1.7863,1.7846,1.7845,1.7844,1.7843,1.7876,1.7878,1.7881,1.7922,0,0,1.7888,1.789,0,0,0,0,0,0,0,0,1.7786,1.7791,1.7826,1.7826,1.7826,1.7848,1.7848,1.7883,1.7847,1.7839,1.7843,1.7842,1.7869,1.7872,1.788,1.7924,1.7925,1.7889,1.789,1.7891,1.7892,0,0,0,0,0,0,0,1.7784,1.7789,1.7842,1.7827,1.7827,1.7823,1.7827,1.7855,1.786,1.7839,1.7838,1.7842,1.7868,1.7878,1.7881,1.7925,1.7889,1.7891,1.7892,1.7893,1.8006,1.8008,0,0,0,0,0,0,1.7782,1.7788,1.7841,1.7843,1.7803,1.7826,1.7829,1.7843,1.786,1.7861,1.7843,1.7841,1.7874,1.7878,1.7882,1.7933,1.7891,1.7894,1.7895,1.8005,1.8007,1.8008,0,0,0,0,0,0,1.778,1.7787,1.784,1.7815,1.7822,1.7828,1.7844,1.7844,1.7854,1.7863,1.7864,1.7852,1.7873,1.7879,1.7913,1.7934,1.7895,1.7897,1.8003,1.8005,1.8007,1.8034,0,0,0,0,0,0,1.7778,1.7786,1.7801,1.7816,1.7823,1.7869,1.7845,1.7846,1.7858,1.7856,1.7871,1.7873,1.7873,1.7909,1.7915,1.7937,1.7899,1.8001,1.8004,1.8007,1.8031,1.8037,1.8042,0,0,0,0,0,1.7776,1.7807,1.7802,1.7809,1.7842,1.787,1.7875,1.7874,1.786,1.7875,1.7882,1.7872,1.7931,1.7913,1.7919,1.7942,1.8,1.8003,1.8007,1.8029,1.8036,1.8042,0,0,0,0,0,0,1.7795,1.7809,1.7803,1.784,1.7855,1.7868,1.7887,1.7881,1.7899,1.7896,1.7895,1.7899,1.7934,1.7942,1.7921,1.7984,1.7963,1.7968,1.7978,1.7985,1.799,1.7987,1.7901,0,0,0,0,0,1.7804,1.7825,1.7836,1.7868,1.7875,1.788,1.7893,1.7891,1.7905,1.7911,1.792,1.7935,1.7957,1.7971,1.7991,1.8033,1.8037,1.8052,1.8057,1.8061,1.8065,1.809,1.8097,1.8019,1.8019,1.8019,0,0,1.7822,1.7832,1.7845,1.7872,1.7883,1.7906,1.7885,1.791,1.7928,1.7915,1.7948,1.7955,1.7972,1.801,1.8027,1.8017,1.8088,1.8065,1.8069,1.8071,1.8094,1.8101,1.8108,1.8021,1.8021,1.8021,0,0,1.7866,1.7876,1.7904,1.7915,1.7932,1.7935,1.7942,1.7957,1.7961,1.7994,1.7986,1.8007,1.8044,1.8057,1.8068,1.812,1.8113,1.8127,1.8154,1.8178,1.8184,1.8189,1.8209,1.8216,1.8131,1.8131,1.8131,0,1.7886,1.792,1.7919,1.7945,1.7958,1.7948,1.7978,1.7989,1.8011,1.8021,1.8009,1.8057,1.8067,1.8109,1.8122,1.8131,1.814,1.8125,1.8183,1.8188,1.8193,1.8212,1.822,1.8133,1.8133,1.8133,1.8132,0,1.7945,1.7969,1.799,1.8013,1.8028,1.8055,1.8059,1.8075,1.8073,1.8078,1.8113,1.8125,1.8149,1.8158,1.8156,1.8201,1.8194,1.8183,1.8162,1.8203,1.822,1.8227,1.8135,1.8135,1.8134,1.8134,0,0,1.8002,1.8024,1.8032,1.8043,1.8062,1.8081,1.8109,1.8132,1.8146,1.8162,1.8187,1.822,1.821,1.8223,1.8222,1.8243,1.8285,1.8229,1.8229,1.824,1.8337,1.8346,1.8354,1.828,1.8282,1.8283,1.8336,0,1.8048,1.8097,1.8098,1.8143,1.8166,1.8158,1.8183,1.8197,1.8203,1.8224,1.8231,1.8255,1.8239,1.8247,1.8268,1.8275,1.8304,1.8272,1.8304,1.8305,1.83,1.8363,1.8372,1.8421,1.8343,1.8344,1.8345,0,1.8109,1.8128,1.8175,1.8192,1.8202,1.8224,1.8247,1.8267,1.8284,1.8287,1.8302,1.8299,1.8329,1.8307,1.8349,1.8327,1.8341,1.8347,1.8349,1.8352,1.8327,1.8369,1.8437,1.8445,1.8355,1.8354,1.8354,0,1.8147,1.8184,1.8218,1.8227,1.8248,1.8264,1.8273,1.8289,1.8304,1.8324,1.8333,1.8357,1.8369,1.8388,1.8392,1.8375,1.8434,1.8413,1.8439,1.8439,1.8451,1.8451,1.8524,1.8459,1.8459,1.8459,1.8459,0,1.8199,1.8229,1.8235,1.8256,1.829,1.8291,1.8324,1.8333,1.8347,1.837,1.8365,1.8387,1.839,1.8413,1.8416,1.8452,1.8457,1.8461,1.8462,1.8462,1.8462,1.8471,1.8468,1.8461,1.846,1.846,1.846,0,1.8247,1.8252,1.8289,1.8306,1.8311,1.8335,1.835,1.837,1.8376,1.8406,1.8413,1.8422,1.845,1.8455,1.8487,1.8489,1.8532,1.8528,1.8526,1.8526,1.8552,1.855,1.8634,1.8646,1.8573,1.8574,1.8574,0,1.828,1.8303,1.8322,1.8338,1.8348,1.8372,1.8387,1.839,1.8406,1.8429,1.8447,1.8474,1.8495,1.8539,1.855,1.8575,1.8573,1.86,1.8576,1.8576,1.8574,1.8573,1.8576,1.8605,1.8606,1.8606,1.8607,0,1.8339,1.8341,1.8363,1.8387,1.8405,1.8424,1.8442,1.8455,1.846,1.8479,1.8507,1.8524,1.8557,1.8584,1.8609,1.862,1.8615,1.8615,1.8622,1.8623,1.8621,1.8624,1.8539,1.8613,1.8612,1.8612,1.8611,1.8611,1.8381,1.8401,1.8419,1.8444,1.8458,1.8476,1.8496,1.8506,1.8529,1.8556,1.8557,1.8588,1.8606,1.864,1.8652,1.8677,1.8668,1.8679,1.8682,1.8685,1.8688,1.8617,1.8682,1.8681,1.8681,1.8681,1.8681,0,1.844,1.8452,1.8475,1.8501,1.8521,1.8515,1.8535,1.8553,1.858,1.8597,1.8619,1.8652,1.8679,1.8692,1.8719,1.8736,1.8735,1.8743,1.8742,1.8745,1.8693,1.8684,1.8744,1.8744,1.8744,1.8744,1.8744,1.8744,1.8474,1.8509,1.8513,1.8556,1.8567,1.8597,1.861,1.8626,1.8641,1.8678,1.87,1.8708,1.8725,1.8753,1.8778,1.8781,1.8792,1.8802,1.8804,1.8755,1.8749,1.8743,1.8734,1.8804,1.8804,1.8854,1.8855,1.8855]},{"header":{"parameterUnit":"m.s-1","parameterCategory":1,"la1":30.2991,"la2":30.254,"lo1":-89.0895,"lo2":-89.0444,"dy":0.0017,"dx":0.0017,"nx":28,"ny":28,"refTime":"2023-11-21T09:00:00:Z","depth":0,"parameterNumber":3,"parameterNumberName":"V-component_of_WINDS"},"data":[0,0,0,0,0,0,0,0,0,0,0,0,0,0,0,0,0,0,0,0,0,0,0,0,0,0,0,0,0,0,0,0,0,0,0,0,0,0,0,0,0,0,0,0,0,0,0,0,0,0,0,0,0,0,0,0,0,0,-6.0547,-6.0548,0,-6.0614,-6.0615,-6.0615,-6.0591,-6.059,-6.0588,-6.0587,-6.065,-6.0653,-6.0656,0,0,0,0,0,0,0,0,0,0,0,0,0,-6.0396,-6.0399,-6.0547,-6.0548,-6.0549,-6.0614,-6.0615,-6.0616,-6.0591,-6.059,-6.0588,-6.0586,-6.0649,-6.0652,-6.0656,0,0,0,0,0,0,0,0,0,0,0,0,0,-6.0462,-6.04,-6.0547,-6.0545,-6.0545,-6.0614,-6.0615,-6.0616,-6.0592,-6.059,-6.0587,-6.0585,-6.0648,-6.0652,-6.0657,-6.0729,0,0,-6.0671,-6.0673,0,0,0,0,0,0,0,0,-6.0458,-6.0468,-6.0544,-6.0545,-6.0546,-6.0592,-6.0584,-6.0654,-6.0592,-6.0574,-6.0587,-6.0584,-6.0632,-6.0638,-6.0655,-6.0732,-6.0735,-6.0671,-6.0674,-6.0676,-6.0677,0,0,0,0,0,0,0,-6.0454,-6.0465,-6.0573,-6.0546,-6.0546,-6.0539,-6.0546,-6.0597,-6.0614,-6.0575,-6.0574,-6.0582,-6.0632,-6.0651,-6.0656,-6.0736,-6.0671,-6.0675,-6.0678,-6.068,-6.0879,-6.0881,0,0,0,0,0,0,-6.045,-6.0461,-6.0571,-6.0575,-6.0496,-6.0544,-6.0552,-6.0579,-6.0614,-6.0617,-6.0584,-6.0581,-6.0644,-6.0651,-6.0658,-6.0748,-6.0676,-6.068,-6.0683,-6.0876,-6.0879,-6.0882,0,0,0,0,0,0,-6.0446,-6.046,-6.0569,-6.0518,-6.0531,-6.0549,-6.058,-6.0582,-6.0601,-6.0621,-6.0623,-6.06,-6.0642,-6.0652,-6.0713,-6.0749,-6.0682,-6.0686,-6.0873,-6.0877,-6.0881,-6.0925,0,0,0,0,0,0,-6.0442,-6.0459,-6.0487,-6.0519,-6.0534,-6.0623,-6.0582,-6.0585,-6.0609,-6.0606,-6.0636,-6.0639,-6.0641,-6.0706,-6.0717,-6.0754,-6.069,-6.087,-6.0875,-6.0879,-6.0921,-6.093,-6.0938,0,0,0,0,0,-6.0437,-6.0495,-6.0489,-6.0502,-6.057,-6.0625,-6.0634,-6.0636,-6.0612,-6.0641,-6.0654,-6.0638,-6.0744,-6.0713,-6.0725,-6.0764,-6.0868,-6.0873,-6.0879,-6.0917,-6.0928,-6.0938,0,0,0,0,0,0,-6.0465,-6.0499,-6.0492,-6.0563,-6.0592,-6.0621,-6.0657,-6.0648,-6.0683,-6.0678,-6.0678,-6.0685,-6.0749,-6.0762,-6.0727,-6.0837,-6.0802,-6.081,-6.0826,-6.0837,-6.0846,-6.0841,-6.0694,0,0,0,0,0,-6.048,-6.0523,-6.055,-6.061,-6.0625,-6.0639,-6.0663,-6.0663,-6.0691,-6.0703,-6.072,-6.0748,-6.0787,-6.0813,-6.085,-6.0923,-6.0929,-6.0956,-6.0964,-6.0972,-6.0979,-6.102,-6.1032,-6.0901,-6.0901,-6.09,0,0,-6.051,-6.0534,-6.0561,-6.0616,-6.0639,-6.0683,-6.0649,-6.0696,-6.0729,-6.0709,-6.0769,-6.0783,-6.0813,-6.0881,-6.0912,-6.0894,-6.1017,-6.0979,-6.0984,-6.0988,-6.1027,-6.1039,-6.1051,-6.0905,-6.0904,-6.0903,0,0,-6.0588,-6.0611,-6.0664,-6.0688,-6.0723,-6.0732,-6.0745,-6.0777,-6.0786,-6.0846,-6.0833,-6.0871,-6.0938,-6.0962,-6.0982,-6.1072,-6.1059,-6.1084,-6.113,-6.117,-6.118,-6.1189,-6.1222,-6.1234,-6.1091,-6.1091,-6.1091,0,-6.0621,-6.0688,-6.0692,-6.0742,-6.0767,-6.0754,-6.0808,-6.083,-6.0875,-6.0892,-6.0872,-6.0959,-6.0978,-6.1052,-6.1074,-6.1091,-6.1106,-6.108,-6.1179,-6.1188,-6.1197,-6.1228,-6.124,-6.1094,-6.1094,-6.1093,-6.1093,0,-6.0727,-6.0774,-6.0813,-6.086,-6.0889,-6.094,-6.0951,-6.098,-6.0978,-6.0989,-6.1051,-6.1075,-6.1118,-6.1135,-6.1132,-6.1209,-6.1197,-6.1178,-6.1143,-6.1212,-6.1242,-6.1254,-6.1098,-6.1097,-6.1096,-6.1095,0,0,-6.0823,-6.0874,-6.0888,-6.091,-6.0949,-6.0984,-6.1035,-6.1079,-6.1105,-6.1136,-6.1179,-6.1238,-6.1222,-6.1245,-6.1245,-6.128,-6.1351,-6.1257,-6.1257,-6.1274,-6.1439,-6.1453,-6.1467,-6.1343,-6.1346,-6.1347,-6.1436,0,-6.0905,-6.0997,-6.1004,-6.1086,-6.113,-6.112,-6.1164,-6.1193,-6.1205,-6.1243,-6.1255,-6.1298,-6.1272,-6.1287,-6.1321,-6.1335,-6.1384,-6.1329,-6.1383,-6.1385,-6.1376,-6.1482,-6.1497,-6.158,-6.1448,-6.145,-6.1451,0,-6.1013,-6.1051,-6.1139,-6.1174,-6.1193,-6.1233,-6.1275,-6.1312,-6.1344,-6.135,-6.1378,-6.1373,-6.1425,-6.1389,-6.146,-6.1423,-6.1445,-6.1456,-6.1459,-6.1464,-6.1422,-6.1491,-6.1607,-6.1619,-6.1469,-6.1468,-6.1467,0,-6.1076,-6.1149,-6.1211,-6.123,-6.1272,-6.1301,-6.1319,-6.135,-6.1376,-6.1413,-6.143,-6.1471,-6.1493,-6.1525,-6.1532,-6.1504,-6.1604,-6.1567,-6.161,-6.161,-6.1632,-6.163,-6.1753,-6.1646,-6.1645,-6.1645,-6.1645,0,-6.1167,-6.1221,-6.1241,-6.1279,-6.134,-6.1346,-6.1406,-6.1422,-6.145,-6.1491,-6.1483,-6.1522,-6.1528,-6.1568,-6.1573,-6.1633,-6.1642,-6.1649,-6.165,-6.165,-6.1649,-6.1665,-6.1659,-6.1648,-6.1648,-6.1647,-6.1646,0,-6.1247,-6.1262,-6.133,-6.1366,-6.1376,-6.1419,-6.1449,-6.1486,-6.1498,-6.155,-6.1563,-6.1581,-6.1628,-6.1638,-6.1692,-6.1696,-6.1767,-6.1762,-6.1757,-6.1757,-6.18,-6.1796,-6.1937,-6.1957,-6.1836,-6.1837,-6.1838,0,-6.1304,-6.1347,-6.1388,-6.1416,-6.1437,-6.1482,-6.151,-6.1518,-6.1548,-6.1589,-6.1621,-6.1667,-6.1705,-6.178,-6.1797,-6.1839,-6.1835,-6.1882,-6.1842,-6.1841,-6.1837,-6.1835,-6.184,-6.189,-6.1891,-6.1892,-6.1893,0,-6.1405,-6.1411,-6.1453,-6.1499,-6.1534,-6.1569,-6.1603,-6.1626,-6.1639,-6.1672,-6.1722,-6.1751,-6.1809,-6.1855,-6.1898,-6.1915,-6.1907,-6.1906,-6.1918,-6.1919,-6.1915,-6.1919,-6.1779,-6.1902,-6.1902,-6.1901,-6.19,-6.19,-6.1476,-6.1514,-6.155,-6.1598,-6.1625,-6.1657,-6.1694,-6.1713,-6.1754,-6.1803,-6.1805,-6.1859,-6.1891,-6.1948,-6.1969,-6.201,-6.1996,-6.2013,-6.2018,-6.2022,-6.2027,-6.1909,-6.2018,-6.2018,-6.2017,-6.2017,-6.2017,0,-6.1577,-6.1601,-6.1645,-6.1694,-6.1732,-6.1723,-6.176,-6.1792,-6.184,-6.1872,-6.191,-6.1967,-6.2013,-6.2035,-6.208,-6.2109,-6.2106,-6.2121,-6.2119,-6.2123,-6.2037,-6.2022,-6.2122,-6.2122,-6.2122,-6.2122,-6.2122,-6.2122,-6.1635,-6.1699,-6.171,-6.1788,-6.181,-6.1864,-6.1887,-6.1917,-6.1943,-6.2008,-6.2047,-6.2062,-6.209,-6.2137,-6.2178,-6.2184,-6.2201,-6.2217,-6.2221,-6.214,-6.2129,-6.2119,-6.2105,-6.2221,-6.2221,-6.2304,-6.2304,-6.2305]}]]